AAL514 KGJT-KSAN

Flight info

Callsign AAL514
Flight time 1h 34m
Altitude 38000
Route KRINA TTRUE LUCKI1
Aircraft A319/M-SDE3FGHIRWY/LB1

Departure

Time 2026-05-05 20:49
Airport Grand Junction Regional Airport (KGJT)

Arrival

Time 2026-05-05 22:23
Airport San Diego International Airport (KSAN)
Time Latitude Longitude Altitude Speed Heading
2026-05-05 20:12 39.12363 -108.52963 4840 ft 0 kts 216°
2026-05-05 20:37 39.12373 -108.52954 4840 ft 4 kts 214°
2026-05-05 20:38 39.12396 -108.52935 4841 ft 4 kts 206°
2026-05-05 20:38 39.12421 -108.52923 4843 ft 4 kts 181°
2026-05-05 20:38 39.12439 -108.52930 4842 ft 1 kts 125°
2026-05-05 20:38 39.12442 -108.52934 4842 ft 0 kts 125°
2026-05-05 20:44 39.12441 -108.52933 4842 ft 1 kts 125°
2026-05-05 20:44 39.12427 -108.52908 4845 ft 5 kts 125°
2026-05-05 20:44 39.12405 -108.52842 4840 ft 11 kts 88°
2026-05-05 20:45 39.12366 -108.52617 4844 ft 20 kts 125°
2026-05-05 20:45 39.12274 -108.52450 4843 ft 26 kts 125°
2026-05-05 20:45 39.12159 -108.52241 4845 ft 32 kts 125°
2026-05-05 20:46 39.12024 -108.51995 4844 ft 34 kts 125°
2026-05-05 20:46 39.11886 -108.51744 4846 ft 34 kts 124°
2026-05-05 20:46 39.11817 -108.51614 4848 ft 7 kts 123°
2026-05-05 20:46 39.11809 -108.51598 4851 ft 0 kts 124°
2026-05-05 20:47 39.11796 -108.51568 4857 ft 6 kts 109°
2026-05-05 20:47 39.11822 -108.51491 4858 ft 13 kts 58°
2026-05-05 20:47 39.11886 -108.51493 4857 ft 1 kts 305°
2026-05-05 20:48 39.11886 -108.51494 4857 ft 1 kts 305°
2026-05-05 20:48 39.11916 -108.51550 4853 ft 27 kts 305°
2026-05-05 20:48 39.12157 -108.51990 4853 ft 92 kts 305°
2026-05-05 20:49 39.12631 -108.52860 4859 ft 144 kts 304°
2026-05-05 20:49 39.13187 -108.53912 5555 ft 134 kts 295°
2026-05-05 20:49 39.13395 -108.55055 6110 ft 134 kts 257°
2026-05-05 20:49 39.12922 -108.56118 6530 ft 145 kts 233°
2026-05-05 20:50 39.12188 -108.57155 6800 ft 169 kts 230°
2026-05-05 20:50 39.11332 -108.58331 7151 ft 192 kts 230°
2026-05-05 20:50 39.10361 -108.59656 7541 ft 216 kts 230°
2026-05-05 20:50 39.09270 -108.61140 7989 ft 240 kts 229°
2026-05-05 20:51 39.08063 -108.62777 8489 ft 262 kts 228°
2026-05-05 20:51 39.06802 -108.64484 9302 ft 269 kts 228°
2026-05-05 20:51 39.05500 -108.66246 10132 ft 276 kts 228°
2026-05-05 20:51 39.04124 -108.68112 10477 ft 298 kts 228°
2026-05-05 20:52 39.02666 -108.70085 11130 ft 309 kts 228°
2026-05-05 20:52 39.01174 -108.72105 11939 ft 313 kts 228°
2026-05-05 20:52 38.99674 -108.74139 12784 ft 317 kts 228°
2026-05-05 20:52 38.98153 -108.76198 13593 ft 321 kts 228°
2026-05-05 20:53 38.96610 -108.78290 14326 ft 325 kts 228°
2026-05-05 20:53 38.95046 -108.80407 15063 ft 328 kts 228°
2026-05-05 20:53 38.93471 -108.82541 15799 ft 331 kts 228°
2026-05-05 20:53 38.91898 -108.84669 16505 ft 335 kts 227°
2026-05-05 20:54 38.90283 -108.86848 17209 ft 339 kts 228°
2026-05-05 20:54 38.88648 -108.89054 17901 ft 343 kts 228°
2026-05-05 20:54 38.86991 -108.91288 18516 ft 347 kts 228°
2026-05-05 20:54 38.85318 -108.93544 19139 ft 351 kts 228°
2026-05-05 20:55 38.83624 -108.95822 19767 ft 355 kts 228°
2026-05-05 20:55 38.81912 -108.98121 20392 ft 359 kts 228°
2026-05-05 20:55 38.80183 -109.00448 21024 ft 362 kts 228°
2026-05-05 20:55 38.78436 -109.02800 21640 ft 366 kts 228°
2026-05-05 20:56 38.76696 -109.05138 22251 ft 370 kts 227°
2026-05-05 20:56 38.74910 -109.07531 22860 ft 373 kts 227°
2026-05-05 20:56 38.73107 -109.09946 23417 ft 377 kts 228°
2026-05-05 20:56 38.71287 -109.12384 23923 ft 381 kts 228°
2026-05-05 20:57 38.69450 -109.14843 24403 ft 384 kts 227°
2026-05-05 20:57 38.67592 -109.17329 24845 ft 389 kts 227°
2026-05-05 20:57 38.65713 -109.19841 25316 ft 392 kts 227°
2026-05-05 20:57 38.63842 -109.22333 25763 ft 396 kts 227°
2026-05-05 20:58 38.61899 -109.24919 26206 ft 400 kts 227°
2026-05-05 20:58 38.59991 -109.27459 26645 ft 403 kts 227°
2026-05-05 20:58 38.58041 -109.30060 27088 ft 407 kts 227°
2026-05-05 20:58 38.56074 -109.32680 27515 ft 410 kts 227°
2026-05-05 20:59 38.54089 -109.35315 27936 ft 414 kts 227°
2026-05-05 20:59 38.52084 -109.37978 28344 ft 417 kts 227°
2026-05-05 20:59 38.50064 -109.40662 28772 ft 421 kts 227°
2026-05-05 20:59 38.48029 -109.43357 29187 ft 424 kts 227°
2026-05-05 21:00 38.45975 -109.46076 29603 ft 427 kts 226°
2026-05-05 21:00 38.43933 -109.48777 29978 ft 429 kts 226°
2026-05-05 21:00 38.41859 -109.51517 30368 ft 430 kts 227°
2026-05-05 21:00 38.39781 -109.54264 30780 ft 431 kts 227°
2026-05-05 21:01 38.37700 -109.57014 31180 ft 431 kts 227°
2026-05-05 21:01 38.35618 -109.59765 31584 ft 431 kts 227°
2026-05-05 21:01 38.33529 -109.62518 31941 ft 433 kts 227°
2026-05-05 21:01 38.31433 -109.65274 32354 ft 433 kts 227°
2026-05-05 21:02 38.29345 -109.68020 32848 ft 431 kts 227°
2026-05-05 21:02 38.27295 -109.70722 33353 ft 429 kts 227°
2026-05-05 21:02 38.25221 -109.73451 33832 ft 428 kts 227°
2026-05-05 21:02 38.23156 -109.76162 34258 ft 426 kts 227°
2026-05-05 21:03 38.21098 -109.78856 34699 ft 424 kts 227°
2026-05-05 21:03 38.19049 -109.81538 35130 ft 422 kts 227°
2026-05-05 21:03 38.17010 -109.84203 35573 ft 419 kts 227°
2026-05-05 21:03 38.14985 -109.86851 35987 ft 417 kts 227°
2026-05-05 21:04 38.12964 -109.89491 36406 ft 415 kts 227°
2026-05-05 21:04 38.10983 -109.92076 36808 ft 413 kts 227°
2026-05-05 21:04 38.08979 -109.94682 37219 ft 412 kts 227°
2026-05-05 21:04 38.06983 -109.97278 37597 ft 410 kts 227°
2026-05-05 21:05 38.04991 -109.99872 37706 ft 408 kts 227°
2026-05-05 21:05 38.03022 -110.02437 37716 ft 404 kts 227°
2026-05-05 21:05 37.99112 -110.07521 37719 ft 402 kts 227°
2026-05-05 21:06 37.95209 -110.12588 37717 ft 402 kts 227°
2026-05-05 21:06 37.91328 -110.17617 37719 ft 402 kts 227°
2026-05-05 21:07 37.87420 -110.22673 37716 ft 402 kts 227°
2026-05-05 21:07 37.83515 -110.27710 37721 ft 402 kts 227°
2026-05-05 21:08 37.79600 -110.32752 37718 ft 401 kts 227°
2026-05-05 21:08 37.75715 -110.37752 37719 ft 401 kts 227°
2026-05-05 21:09 37.71802 -110.42787 37714 ft 401 kts 227°
2026-05-05 21:09 37.67894 -110.47814 37713 ft 402 kts 226°
2026-05-05 21:10 37.63969 -110.52833 37712 ft 401 kts 226°
2026-05-05 21:10 37.60077 -110.57810 37709 ft 401 kts 226°
2026-05-05 21:11 37.56158 -110.62811 37711 ft 401 kts 226°
2026-05-05 21:11 37.52231 -110.67808 37712 ft 401 kts 226°
2026-05-05 21:12 37.48301 -110.72797 37717 ft 401 kts 226°
2026-05-05 21:12 37.44403 -110.77754 37723 ft 401 kts 226°
2026-05-05 21:13 37.40472 -110.82750 37721 ft 402 kts 226°
2026-05-05 21:13 37.36534 -110.87746 37729 ft 402 kts 226°
2026-05-05 21:14 37.32597 -110.92731 37735 ft 402 kts 226°
2026-05-05 21:14 37.28682 -110.97668 37742 ft 401 kts 226°
2026-05-05 21:15 37.24741 -111.02635 37745 ft 401 kts 226°
2026-05-05 21:15 37.20803 -111.07595 37747 ft 401 kts 226°
2026-05-05 21:16 37.16858 -111.12549 37746 ft 401 kts 226°
2026-05-05 21:16 37.12945 -111.17457 37776 ft 401 kts 226°
2026-05-05 21:17 37.08997 -111.22396 37805 ft 401 kts 226°
2026-05-05 21:17 37.05048 -111.27339 37829 ft 401 kts 226°
2026-05-05 21:18 37.01096 -111.32270 37862 ft 401 kts 226°
2026-05-05 21:18 36.97139 -111.37200 37889 ft 402 kts 226°
2026-05-05 21:19 36.93214 -111.42104 37889 ft 402 kts 226°
2026-05-05 21:19 36.89253 -111.47026 37887 ft 401 kts 226°
2026-05-05 21:20 36.85291 -111.51931 37886 ft 401 kts 226°
2026-05-05 21:20 36.81330 -111.56837 37857 ft 401 kts 226°
2026-05-05 21:21 36.77395 -111.61702 37834 ft 401 kts 225°
2026-05-05 21:21 36.73438 -111.66598 37815 ft 401 kts 225°
2026-05-05 21:22 36.69501 -111.71466 37788 ft 401 kts 225°
2026-05-05 21:22 36.65536 -111.76348 37769 ft 401 kts 225°
2026-05-05 21:23 36.61591 -111.81187 37775 ft 401 kts 225°
2026-05-05 21:23 36.57624 -111.86058 37778 ft 401 kts 225°
2026-05-05 21:24 36.53656 -111.90932 37776 ft 401 kts 225°
2026-05-05 21:24 36.49715 -111.95762 37784 ft 401 kts 225°
2026-05-05 21:25 36.45739 -112.00613 37785 ft 401 kts 225°
2026-05-05 21:25 36.41766 -112.05460 37789 ft 400 kts 225°
2026-05-05 21:26 36.37792 -112.10306 37791 ft 401 kts 225°
2026-05-05 21:26 36.33814 -112.15152 37794 ft 401 kts 225°
2026-05-05 21:27 36.29859 -112.19957 37812 ft 401 kts 225°
2026-05-05 21:27 36.25877 -112.24796 37841 ft 401 kts 225°
2026-05-05 21:28 36.21887 -112.29622 37856 ft 400 kts 225°
2026-05-05 21:28 36.17903 -112.34435 37862 ft 399 kts 224°
2026-05-05 21:29 36.13949 -112.39203 37863 ft 400 kts 225°
2026-05-05 21:29 36.09973 -112.44001 37859 ft 400 kts 225°
2026-05-05 21:30 36.05993 -112.48802 37844 ft 400 kts 225°
2026-05-05 21:30 36.02010 -112.53599 37819 ft 399 kts 225°
2026-05-05 21:31 35.98052 -112.58349 37808 ft 400 kts 225°
2026-05-05 21:31 35.94061 -112.63128 37803 ft 400 kts 225°
2026-05-05 21:32 35.90067 -112.67902 37816 ft 400 kts 225°
2026-05-05 21:32 35.86077 -112.72683 37819 ft 400 kts 225°
2026-05-05 21:33 35.82106 -112.77418 37821 ft 400 kts 225°
2026-05-05 21:33 35.78106 -112.82180 37826 ft 400 kts 225°
2026-05-05 21:34 35.74101 -112.86935 37830 ft 400 kts 225°
2026-05-05 21:34 35.70103 -112.91693 37833 ft 400 kts 225°
2026-05-05 21:35 35.66121 -112.96418 37839 ft 400 kts 225°
2026-05-05 21:35 35.62106 -113.01168 37838 ft 400 kts 225°
2026-05-05 21:36 35.58094 -113.05916 37845 ft 401 kts 225°
2026-05-05 21:36 35.54080 -113.10662 37837 ft 400 kts 225°
2026-05-05 21:37 35.50113 -113.15335 37834 ft 400 kts 225°
2026-05-05 21:37 35.46164 -113.20138 37830 ft 399 kts 230°
2026-05-05 21:38 35.42589 -113.25349 37833 ft 399 kts 230°
2026-05-05 21:38 35.39004 -113.30549 37831 ft 399 kts 230°
2026-05-05 21:39 35.35418 -113.35735 37825 ft 399 kts 230°
2026-05-05 21:39 35.31856 -113.40879 37829 ft 399 kts 230°
2026-05-05 21:40 35.28269 -113.46063 37825 ft 399 kts 230°
2026-05-05 21:40 35.24685 -113.51242 37830 ft 399 kts 230°
2026-05-05 21:41 35.21091 -113.56420 37848 ft 399 kts 230°
2026-05-05 21:41 35.17512 -113.61553 37865 ft 399 kts 230°
2026-05-05 21:42 35.13911 -113.66722 37876 ft 399 kts 230°
2026-05-05 21:42 35.10312 -113.71892 37883 ft 399 kts 230°
2026-05-05 21:43 35.06701 -113.77053 37891 ft 400 kts 230°
2026-05-05 21:43 35.03116 -113.82174 37876 ft 399 kts 230°
2026-05-05 21:44 34.99506 -113.87323 37866 ft 399 kts 230°
2026-05-05 21:44 34.95896 -113.92474 37847 ft 400 kts 230°
2026-05-05 21:45 34.92278 -113.97627 37835 ft 400 kts 230°
2026-05-05 21:45 34.88651 -114.02765 37827 ft 400 kts 230°
2026-05-05 21:46 34.85048 -114.07866 37836 ft 400 kts 230°
2026-05-05 21:46 34.81427 -114.13001 37846 ft 400 kts 230°
2026-05-05 21:47 34.77805 -114.18136 37864 ft 400 kts 230°
2026-05-05 21:47 34.74183 -114.23270 37875 ft 400 kts 230°
2026-05-05 21:48 34.70582 -114.28347 37891 ft 399 kts 230°
2026-05-05 21:48 34.66947 -114.33452 37903 ft 399 kts 230°
2026-05-05 21:49 34.63316 -114.38549 37906 ft 399 kts 230°
2026-05-05 21:49 34.59667 -114.43629 37909 ft 399 kts 230°
2026-05-05 21:50 34.56029 -114.48649 37891 ft 399 kts 230°
2026-05-05 21:50 34.52367 -114.53706 37889 ft 399 kts 230°
2026-05-05 21:51 34.48704 -114.58755 37876 ft 399 kts 230°
2026-05-05 21:51 34.45077 -114.63744 37876 ft 399 kts 230°
2026-05-05 21:52 34.39587 -114.71294 37859 ft 399 kts 230°
2026-05-05 21:53 34.35909 -114.76319 37869 ft 399 kts 230°
2026-05-05 21:53 34.32236 -114.81352 37857 ft 399 kts 230°
2026-05-05 21:54 34.28565 -114.86381 37870 ft 399 kts 230°
2026-05-05 21:54 34.24890 -114.91403 37870 ft 399 kts 230°
2026-05-05 21:55 34.21236 -114.96384 37868 ft 399 kts 230°
2026-05-05 21:55 34.17551 -115.01396 37881 ft 399 kts 230°
2026-05-05 21:56 34.13867 -115.06400 37885 ft 399 kts 230°
2026-05-05 21:56 34.10176 -115.11397 37884 ft 399 kts 230°
2026-05-05 21:57 34.06513 -115.16360 37890 ft 399 kts 230°
2026-05-05 21:57 34.02827 -115.21352 37895 ft 399 kts 230°
2026-05-05 21:58 33.99134 -115.26347 37898 ft 399 kts 230°
2026-05-05 21:58 33.95451 -115.31334 37903 ft 398 kts 230°
2026-05-05 21:59 33.91792 -115.36306 37876 ft 400 kts 230°
2026-05-05 21:59 33.88083 -115.41326 37884 ft 402 kts 230°
2026-05-05 22:00 33.84356 -115.46354 37879 ft 403 kts 230°
2026-05-05 22:00 33.80622 -115.51388 37892 ft 404 kts 230°
2026-05-05 22:01 33.76881 -115.56448 37326 ft 409 kts 230°
2026-05-05 22:01 33.74965 -115.59032 36342 ft 418 kts 230°
2026-05-05 22:01 33.73040 -115.61617 35534 ft 422 kts 230°
2026-05-05 22:01 33.71074 -115.64253 34795 ft 424 kts 230°
2026-05-05 22:02 33.69100 -115.66890 34136 ft 425 kts 230°
2026-05-05 22:02 33.67122 -115.69510 33521 ft 422 kts 229°
2026-05-05 22:02 33.65156 -115.72096 32921 ft 417 kts 229°
2026-05-05 22:02 33.63206 -115.74642 32436 ft 411 kts 229°
2026-05-05 22:03 33.61398 -115.77283 31763 ft 408 kts 236°
2026-05-05 22:03 33.59802 -115.80075 31149 ft 405 kts 236°
2026-05-05 22:03 33.58230 -115.82810 30564 ft 402 kts 236°
2026-05-05 22:03 33.56645 -115.85553 30010 ft 399 kts 236°
2026-05-05 22:04 33.55067 -115.88280 29344 ft 396 kts 236°
2026-05-05 22:04 33.53500 -115.90983 28665 ft 394 kts 236°
2026-05-05 22:04 33.51942 -115.93672 27999 ft 392 kts 236°
2026-05-05 22:04 33.50395 -115.96347 27363 ft 389 kts 236°
2026-05-05 22:05 33.48859 -115.99007 26722 ft 387 kts 236°
2026-05-05 22:05 33.47326 -116.01657 26094 ft 386 kts 236°
2026-05-05 22:05 33.45797 -116.04295 25481 ft 385 kts 236°
2026-05-05 22:05 33.44292 -116.06884 24933 ft 383 kts 236°
2026-05-05 22:06 33.42770 -116.09501 24378 ft 382 kts 236°
2026-05-05 22:06 33.41255 -116.12108 23854 ft 381 kts 237°
2026-05-05 22:06 33.39743 -116.14708 23336 ft 380 kts 237°
2026-05-05 22:06 33.38236 -116.17292 22810 ft 377 kts 237°
2026-05-05 22:07 33.36798 -116.19759 22313 ft 374 kts 237°
2026-05-05 22:07 33.35316 -116.22302 21832 ft 372 kts 237°
2026-05-05 22:07 33.33623 -116.24626 21365 ft 372 kts 223°
2026-05-05 22:07 33.31477 -116.26340 20920 ft 372 kts 209°
2026-05-05 22:08 33.29188 -116.27677 20441 ft 370 kts 208°
2026-05-05 22:08 33.26881 -116.29021 19977 ft 368 kts 209°
2026-05-05 22:08 33.24591 -116.30355 19514 ft 365 kts 209°
2026-05-05 22:08 33.22320 -116.31682 19071 ft 362 kts 209°
2026-05-05 22:09 33.20070 -116.33002 18620 ft 359 kts 210°
2026-05-05 22:09 33.17835 -116.34317 18149 ft 357 kts 209°
2026-05-05 22:09 33.15620 -116.35620 17654 ft 354 kts 209°
2026-05-05 22:09 33.13392 -116.36929 16723 ft 362 kts 209°
2026-05-05 22:10 33.11112 -116.38266 15951 ft 366 kts 209°
2026-05-05 22:10 33.08870 -116.39574 15523 ft 361 kts 209°
2026-05-05 22:10 33.06625 -116.40877 15091 ft 357 kts 209°
2026-05-05 22:10 33.04408 -116.42164 14668 ft 352 kts 209°
2026-05-05 22:11 33.02218 -116.43439 14247 ft 348 kts 209°
2026-05-05 22:11 33.00139 -116.44856 13827 ft 341 kts 220°
2026-05-05 22:11 32.98350 -116.46629 13370 ft 327 kts 223°
2026-05-05 22:11 32.96647 -116.48354 12982 ft 318 kts 223°
2026-05-05 22:12 32.94977 -116.50045 12587 ft 314 kts 223°
2026-05-05 22:12 32.93322 -116.51720 12199 ft 311 kts 223°
2026-05-05 22:12 32.91696 -116.53361 11810 ft 310 kts 223°
2026-05-05 22:12 32.90057 -116.55012 11427 ft 308 kts 223°
2026-05-05 22:13 32.88427 -116.56651 11192 ft 306 kts 223°
2026-05-05 22:13 32.86802 -116.58284 11058 ft 307 kts 223°
2026-05-05 22:13 32.85177 -116.59920 10698 ft 305 kts 223°
2026-05-05 22:13 32.83562 -116.61546 10291 ft 304 kts 223°
2026-05-05 22:14 32.81954 -116.63163 9871 ft 303 kts 223°
2026-05-05 22:14 32.80433 -116.64692 9451 ft 301 kts 223°
2026-05-05 22:14 32.78784 -116.66348 9022 ft 297 kts 223°
2026-05-05 22:14 32.77341 -116.68058 8620 ft 291 kts 235°
2026-05-05 22:15 32.76308 -116.70058 8227 ft 286 kts 243°
2026-05-05 22:15 32.75346 -116.72103 7838 ft 282 kts 243°
2026-05-05 22:15 32.74388 -116.74130 7449 ft 280 kts 243°
2026-05-05 22:15 32.73440 -116.76131 7066 ft 277 kts 242°
2026-05-05 22:16 32.72500 -116.78111 6689 ft 274 kts 242°
2026-05-05 22:16 32.71562 -116.80082 6302 ft 273 kts 243°
2026-05-05 22:16 32.70669 -116.82056 5916 ft 269 kts 248°
2026-05-05 22:16 32.70030 -116.84118 5588 ft 264 kts 251°
2026-05-05 22:17 32.69400 -116.86144 5264 ft 259 kts 251°
2026-05-05 22:17 32.68786 -116.88103 4953 ft 254 kts 251°
2026-05-05 22:17 32.68188 -116.90065 4668 ft 251 kts 252°
2026-05-05 22:17 32.67613 -116.92004 4379 ft 246 kts 252°
2026-05-05 22:18 32.67342 -116.93963 4105 ft 238 kts 275°
2026-05-05 22:18 32.67720 -116.95825 3978 ft 226 kts 286°
2026-05-05 22:18 32.68143 -116.97550 3977 ft 208 kts 285°
2026-05-05 22:18 32.68523 -116.99108 3973 ft 185 kts 286°
2026-05-05 22:19 32.68869 -117.00528 3788 ft 179 kts 286°
2026-05-05 22:19 32.69210 -117.01926 3536 ft 173 kts 286°
2026-05-05 22:19 32.69539 -117.03273 3279 ft 168 kts 285°
2026-05-05 22:19 32.69865 -117.04608 3005 ft 168 kts 286°
2026-05-05 22:20 32.70183 -117.05900 2989 ft 155 kts 285°
2026-05-05 22:20 32.70488 -117.07128 2730 ft 154 kts 285°
2026-05-05 22:20 32.70770 -117.08288 2573 ft 144 kts 284°
2026-05-05 22:20 32.71040 -117.09416 2317 ft 141 kts 285°
2026-05-05 22:21 32.71309 -117.10531 2065 ft 140 kts 285°
2026-05-05 22:21 32.71573 -117.11621 1811 ft 139 kts 285°
2026-05-05 22:21 32.71837 -117.12705 1542 ft 134 kts 286°
2026-05-05 22:21 32.72089 -117.13742 1310 ft 129 kts 285°
2026-05-05 22:22 32.72334 -117.14752 1113 ft 127 kts 286°
2026-05-05 22:22 32.72580 -117.15762 931 ft 129 kts 287°
2026-05-05 22:22 32.72847 -117.16806 566 ft 137 kts 287°
2026-05-05 22:22 32.73118 -117.17924 149 ft 145 kts 285°
2026-05-05 22:23 32.73378 -117.19024 21 ft 122 kts 286°
2026-05-05 22:23 32.73529 -117.19669 26 ft 23 kts 286°
2026-05-05 22:23 32.73513 -117.19826 27 ft 22 kts 251°
2026-05-05 22:23 32.73491 -117.19941 23 ft 11 kts 280°
2026-05-05 22:24 32.73507 -117.20010 24 ft 3 kts 286°
2026-05-05 22:24 32.73509 -117.20019 25 ft 3 kts 285°
2026-05-05 22:24 32.73514 -117.20040 23 ft 4 kts 286°
2026-05-05 22:24 32.73531 -117.20098 23 ft 11 kts 289°
2026-05-05 22:25 32.73552 -117.20177 25 ft 9 kts 279°
2026-05-05 22:25 32.73507 -117.20238 22 ft 13 kts 197°
2026-05-05 22:25 32.73423 -117.20268 22 ft 12 kts 197°
2026-05-05 22:25 32.73359 -117.20273 23 ft 6 kts 167°
2026-05-05 22:26 32.73333 -117.20232 21 ft 8 kts 88°
2026-05-05 22:26 32.73338 -117.20181 21 ft 1 kts 81°